When you browse on this site, cookies collect data to enhance your experience and personalize the content and advertising you see.
Visit our Privacy Policy to learn more. By continuing to use the site, you agree to this use of cookies and data.
  • In Spain
  • List of Countries
  • For 7 days
  • Water Temperature
  • Satellite Maps
  • Weather Map
  • Weather Widgets
  • user-avatar
    Login

    Hourly Weather Dakar

    Today, 19 December, Wednesday

    Time Temperature Precipitation Wind Pressure Humidity
    00:00 +24°C° 0 mm 7 mps 761 mmHg 46%
    01:00 +23°C° 0 mm 7 mps 761 mmHg 44%
    02:00 +23°C° 0 mm 7 mps 761 mmHg 43%
    03:00 +23°C° 0 mm 7 mps 761 mmHg 38%
    04:00 +23°C° 0 mm 7 mps 761 mmHg 33%
    05:00 +23°C° 0 mm 7 mps 760 mmHg 28%
    06:00 +23°C° 0 mm 7 mps 761 mmHg 24%
    07:00 +24°C° 0 mm 7 mps 761 mmHg 20%
    08:00 +26°C° 0 mm 7 mps 762 mmHg 17%
    09:00 +29°C° 0 mm 7 mps 761 mmHg 15%
    10:00 +32°C° 0 mm 7 mps 761 mmHg 13%
    11:00 +35°C° 0 mm 7 mps 761 mmHg 11%
    12:00 +35°C° 0 mm 7 mps 761 mmHg 11%
    13:00 +36°C° 0 mm 7 mps 760 mmHg 12%
    14:00 +38°C° 0 mm 7 mps 759 mmHg 12%
    15:00 +35°C° 0 mm 7 mps 759 mmHg 17%
    16:00 +34°C° 0 mm 7 mps 759 mmHg 21%
    17:00 +32°C° 0 mm 7 mps 759 mmHg 25%
    18:00 +30°C° 0 mm 7 mps 759 mmHg 31%
    19:00 +28°C° 0 mm 7 mps 760 mmHg 37%
    20:00 +26°C° 0 mm 7 mps 760 mmHg 43%
    21:00 +26°C° 0 mm 7 mps 760 mmHg 44%
    22:00 +26°C° 0 mm 7 mps 761 mmHg 46%
    23:00 +26°C° 0 mm 7 mps 761 mmHg 47%

    Tomorrow, 20 December, Thursday

    Time Temperature Precipitation Wind Pressure Humidity
    00:00 +26°C° 0 mm 7 mps 761 mmHg 47%
    01:00 +24°C° 0 mm 7 mps 760 mmHg 47%
    02:00 +24°C° 0 mm 8 mps 760 mmHg 47%
    03:00 +24°C° 0 mm 8 mps 760 mmHg 41%
    04:00 +23°C° 0 mm 8 mps 760 mmHg 35%
    05:00 +23°C° 0 mm 7 mps 760 mmHg 29%
    06:00 +24°C° 0 mm 7 mps 760 mmHg 24%
    07:00 +26°C° 0 mm 7 mps 760 mmHg 20%
    08:00 +27°C° 0 mm 7 mps 761 mmHg 15%
    09:00 +30°C° 0 mm 7 mps 761 mmHg 13%
    10:00 +33°C° 0 mm 6 mps 761 mmHg 11%
    11:00 +36°C° 0 mm 6 mps 761 mmHg 9%
    12:00 +38°C° 0 mm 6 mps 760 mmHg 9%
    13:00 +39°C° 0 mm 5 mps 760 mmHg 9%
    14:00 +40°C° 0 mm 5 mps 759 mmHg 9%
    15:00 +37°C° 0 mm 5 mps 759 mmHg 12%
    16:00 +36°C° 0 mm 5 mps 759 mmHg 15%
    17:00 +35°C° 0 mm 6 mps 758 mmHg 18%
    18:00 +33°C° 0 mm 6 mps 759 mmHg 25%
    19:00 +30°C° 0 mm 6 mps 759 mmHg 31%
    20:00 +28°C° 0 mm 7 mps 760 mmHg 38%
    21:00 +27°C° 0 mm 7 mps 760 mmHg 39%
    22:00 +27°C° 0 mm 7 mps 760 mmHg 39%
    23:00 +26°C° 0 mm 7 mps 760 mmHg 40%

    Day after tomorrow, 21 December, Friday

    Time Temperature Precipitation Wind Pressure Humidity
    00:00 +26°C° 0 mm 7 mps 760 mmHg 32%
    01:00 +26°C° 0 mm 7 mps 759 mmHg 25%
    02:00 +26°C° 0 mm 7 mps 759 mmHg 17%
    03:00 +26°C° 0 mm 7 mps 759 mmHg 17%
    04:00 +26°C° 0 mm 7 mps 759 mmHg 16%
    05:00 +24°C° 0 mm 7 mps 759 mmHg 15%
    06:00 +26°C° 0 mm 7 mps 759 mmHg 15%
    07:00 +27°C° 0 mm 7 mps 760 mmHg 14%
    08:00 +27°C° 0 mm 7 mps 760 mmHg 13%
    09:00 +30°C° 0 mm 7 mps 760 mmHg 11%
    10:00 +34°C° 0 mm 6 mps 760 mmHg 10%
    11:00 +38°C° 0 mm 6 mps 760 mmHg 9%
    12:00 +39°C° 0 mm 5 mps 760 mmHg 8%
    13:00 +40°C° 0 mm 5 mps 759 mmHg 8%
    14:00 +41°C° 0 mm 4 mps 758 mmHg 8%
    15:00 +40°C° 0 mm 5 mps 758 mmHg 9%
    16:00 +39°C° 0 mm 6 mps 758 mmHg 11%
    17:00 +38°C° 0 mm 6 mps 758 mmHg 13%
    18:00 +35°C° 0 mm 7 mps 758 mmHg 17%
    19:00 +33°C° 0 mm 7 mps 759 mmHg 21%
    20:00 +31°C° 0 mm 8 mps 759 mmHg 25%
    21:00 +29°C° 0 mm 7 mps 759 mmHg 22%
    22:00 +29°C° 0 mm 7 mps 759 mmHg 18%
    23:00 +29°C° 0 mm 7 mps 759 mmHg 15%

    22 December, Saturday

    Time Temperature Precipitation Wind Pressure Humidity
    00:00 +28°C° 0 mm 7 mps 759 mmHg 15%
    01:00 +28°C° 0 mm 7 mps 759 mmHg 15%
    02:00 +27°C° 0 mm 7 mps 758 mmHg 15%
    03:00 +26°C° 0 mm 6 mps 758 mmHg 16%
    04:00 +26°C° 0 mm 6 mps 758 mmHg 16%
    05:00 +24°C° 0 mm 6 mps 758 mmHg 16%
    06:00 +26°C° 0 mm 6 mps 759 mmHg 15%
    07:00 +27°C° 0 mm 6 mps 759 mmHg 14%
    08:00 +27°C° 0 mm 6 mps 760 mmHg 13%
    09:00 +30°C° 0 mm 6 mps 760 mmHg 11%
    10:00 +34°C° 0 mm 5 mps 760 mmHg 10%
    11:00 +36°C° 0 mm 5 mps 760 mmHg 8%
    12:00 +38°C° 0 mm 4 mps 759 mmHg 8%
    13:00 +39°C° 0 mm 3 mps 758 mmHg 8%
    14:00 +40°C° 0 mm 3 mps 757 mmHg 7%
    15:00 +39°C° 0 mm 3 mps 757 mmHg 9%
    16:00 +37°C° 0 mm 4 mps 757 mmHg 11%
    17:00 +36°C° 0 mm 4 mps 757 mmHg 13%
    18:00 +34°C° 0 mm 5 mps 758 mmHg 16%
    19:00 +32°C° 0 mm 5 mps 758 mmHg 19%
    20:00 +29°C° 0 mm 5 mps 758 mmHg 22%
    21:00 +29°C° 0 mm 5 mps 759 mmHg 20%
    22:00 +28°C° 0 mm 5 mps 759 mmHg 17%
    23:00 +28°C° 0 mm 5 mps 759 mmHg 15%

    23 December, Sunday

    Time Temperature Precipitation Wind Pressure Humidity
    00:00 +27°C° 0 mm 5 mps 758 mmHg 15%
    01:00 +27°C° 0 mm 5 mps 758 mmHg 15%
    02:00 +26°C° 0 mm 5 mps 758 mmHg 15%
    03:00 +26°C° 0 mm 4 mps 758 mmHg 16%
    04:00 +25°C° 0 mm 4 mps 758 mmHg 17%
    05:00 +23°C° 0 mm 4 mps 758 mmHg 17%
    06:00 +25°C° 0 mm 5 mps 758 mmHg 16%
    07:00 +26°C° 0 mm 5 mps 759 mmHg 15%
    08:00 +27°C° 0 mm 6 mps 759 mmHg 14%
    09:00 +29°C° 0 mm 6 mps 759 mmHg 13%
    10:00 +33°C° 0 mm 5 mps 759 mmHg 11%
    11:00 +36°C° 0 mm 5 mps 759 mmHg 9%
    12:00 +37°C° 0 mm 4 mps 759 mmHg 9%
    13:00 +38°C° 0 mm 3 mps 758 mmHg 8%
    14:00 +39°C° 0 mm 2 mps 757 mmHg 8%
    15:00 +38°C° 0 mm 2 mps 757 mmHg 10%
    16:00 +37°C° 0 mm 2 mps 757 mmHg 12%
    17:00 +35°C° 0 mm 3 mps 757 mmHg 14%
    18:00 +34°C° 0 mm 3 mps 757 mmHg 18%
    19:00 +32°C° 0 mm 4 mps 758 mmHg 22%
    20:00 +29°C° 0 mm 4 mps 758 mmHg 26%
    21:00 +28°C° 0 mm 5 mps 759 mmHg 25%
    22:00 +28°C° 0 mm 5 mps 759 mmHg 25%
    23:00 +27°C° 0 mm 5 mps 759 mmHg 24%

    24 December, Monday

    Time Temperature Precipitation Wind Pressure Humidity
    00:00 +27°C° 0 mm 5 mps 759 mmHg 21%
    01:00 +26°C° 0 mm 5 mps 758 mmHg 18%
    02:00 +26°C° 0 mm 5 mps 758 mmHg 15%
    03:00 +25°C° 0 mm 5 mps 758 mmHg 16%
    04:00 +25°C° 0 mm 4 mps 758 mmHg 16%
    05:00 +25°C° 0 mm 4 mps 758 mmHg 17%
    06:00 +25°C° 0 mm 4 mps 759 mmHg 16%
    07:00 +26°C° 0 mm 4 mps 759 mmHg 15%
    08:00 +27°C° 0 mm 4 mps 759 mmHg 14%
    09:00 +30°C° 0 mm 4 mps 759 mmHg 12%
    10:00 +34°C° 0 mm 3 mps 759 mmHg 11%
    11:00 +36°C° 0 mm 3 mps 759 mmHg 9%
    12:00 +37°C° 0 mm 3 mps 759 mmHg 9%
    13:00 +38°C° 0 mm 2 mps 758 mmHg 9%
    14:00 +39°C° 0 mm 2 mps 757 mmHg 9%
    15:00 +37°C° 0 mm 3 mps 758 mmHg 12%
    16:00 +36°C° 0 mm 4 mps 758 mmHg 16%
    17:00 +34°C° 0 mm 6 mps 758 mmHg 19%
    18:00 +32°C° 0 mm 6 mps 758 mmHg 23%
    19:00 +30°C° 0 mm 6 mps 759 mmHg 27%
    20:00 +28°C° 0 mm 6 mps 759 mmHg 32%
    21:00 +27°C° 0 mm 6 mps 759 mmHg 33%
    22:00 +27°C° 0 mm 6 mps 759 mmHg 35%
    23:00 +27°C° 0 mm 7 mps 760 mmHg 36%
    Show more